771  
ASUS44 KLUB 140801  
RWRLUB  
WEST TEXAS WEATHER ROUNDUP  
NATIONAL WEATHER SERVICE LUBBOCK TX  
200 AM CST THU DEC 14 2017  
 
NOTE: "FAIR" INDICATES FEW OR NO CLOUDS BELOW 12,000 FEET WITH NO  
SIGNIFICANT WEATHER AND/OR S TO VISIBILITY
.  
 
TXZ004-006>008-010-012-014-016-OKZ002-140900-  
TEXAS PANHANDLE/OKLAHOMA PANHANDLE  
 
CITY SKY/WX TMP DP RH WIND PRES REMARKS
 
AMARILLO CLOUDY 31 16 54 N10 30.01R WCI 22  
BORGER PTCLDY 42 17 36 NE5 30.04R  
CANADIAN CLOUDY 41 19 41 NE6 30.04R  
DALHART CLOUDY 44 16 32 NE17 30.06R  
DUMAS PTCLDY 39 16 39 N7 30.04R WCI 34  
GUYMON CLOUDY 39 18 42 N7 30.08R WCI 34  
HEREFORD CLOUDY 25 12 59 MISG 30.02R  
PAMPA PTCLDY 42 18 37 NE10 30.03R  
PERRYTON PTCLDY 43 17 36 N8 30.04R  

 
 
TXZ026-029-035-045-048-140900-  
SOUTHERN PANHANDLE/SOUTH PLAINS/ROLLING PLAINS  
 
CITY SKY/WX TMP DP RH WIND PRES REMARKS
 
CHILDRESS CLEAR 37 18 46 N7 29.98R WCI 32  
SEMINOLE CLOUDY 40 17 40 N8 29.96S WCI 34  
LUBBOCK CLEAR 34 15 46 N10 29.96S WCI 26  
PLAINVIEW CLEAR 32 13 45 N3 29.97S  
SNYDER CLEAR 45 19 35 E6 29.95S  

 
 
TXZ052-054-060>062-072-078-127-140-154-169-140900-  
PERMIAN BASIN/CONCHO VALLEY/BIG COUNTRY/EDWARDS PLATEAU  
 
CITY SKY/WX TMP DP RH WIND PRES REMARKS
 
ABILENE CLEAR 39 28 64 SW3 29.94R  
BIG SPRING CLEAR 38 29 71 E7 29.95F WCI 32  
BROWNWOOD CLOUDY 39 25 56 CALM 29.93S  
JUNCTION CLOUDY 43 35 73 NW3 29.93S  
MIDLAND CLEAR 34 29 82 W6 29.91F WCI 29  
ODESSA CLEAR 35 25 66 NW7 29.92F WCI 29  
SAN ANGELO CLOUDY 44 32 62 W9 29.92F  
SONORA CLOUDY 39 34 81 CALM 29.97F  
SWEETWATER CLEAR 48 17 28 NE5 29.96F  
WINK CLEAR 34 23 64 N7 29.93S WCI 28  

 
 
TXZ055-058-074-075-080-082-140900-  
FAR WEST/SOUTHWEST MOUNTAINS/TRANS PECOS  
 
CITY SKY/WX TMP DP RH WIND PRES REMARKS
 
ALPINE CLOUDY 47 31 53 SW14 30.04F  
DRYDEN N/A 42 37 82 N7 29.91F  
EL PASO CLEAR 42 28 57 CALM 29.97F  
GUADALUPE PASS CLOUDY 42 18 37 SW16 30.00F  
PECOS CLEAR 42 32 67 NW9 29.95S  
PRESIDIO FAIR 48 35 60 N5 29.99F  

 
 
TXZ014-016-019-021>030-083-140900  
TEXAS TECH WEST TEXAS MESONET/TEXAS PANHANDLE/NORTHERN SOUTH PLAINS  
 
CITY SKY/WX TMP DP RH WIND PRES REMARKS
 
ABERNATHY 5ENE N/A 31 17 54 N7 29.98S WCI 25  
AMARILLO 9NNE N/A 22 12 65 S1 30.02R  
AMARILLO 7SSE N/A 34 16 47 N8 30.01R WCI 28  
AMHERST 1NE N/A 28 14 55 N7 29.98F WCI 21  
BOOTLEG 11WNW N/A 37 13 37 NE3 30.03R  
CANADIAN 6E N/A 44 17 34 N10 30.01R  
CAPROCK CYN SP N/A 40 16 36 N6 29.99R  
CHILDRESS 2NNE N/A 39 18 42 N8 29.97R WCI 34  
CLARENDON 2WSW N/A 31 15 49 N6 29.99S WCI 26  
CLAUDE 12SW N/A 35 15 44 N14 29.99R WCI 25  
DIMMITT 2NE N/A 27 14 57 NW5 30.00R WCI 22  
FLOYDADA 2NNE N/A 33 15 49 N6 29.97S WCI 27  
FRIONA 2NE N/A 24 13 61 NW3 30.01S  
GOODLETT 3W N/A 40 18 41 N9 29.96R WCI 34  
HART 3N N/A 31 15 52 N6 29.99S WCI 25  
HEREFORD 2NW N/A 27 13 55 N7 30.00R WCI 19  
MCLEAN 1E N/A 40 14 34 N9 29.99R WCI 34  
MEMPHIS 1NE N/A 42 16 34 N12 29.98R  
MULESHOE 2SSW N/A 21 10 64 W6 29.99F WCI 13  
OLTON 6S N/A 31 14 48 N8 29.98F WCI 24  
PALO DURO SP N/A 44 14 30 N5 30.01R  
PAMPA 2E N/A 40 19 42 N8 30.02S WCI 35  
PLAINVIEW 1S N/A 40 15 37 N6 29.98R  
SILVERTON 7ESE N/A 32 13 46 N7 30.00R WCI 25  
TULIA 2ENE N/A 27 16 61 NW6 29.99R WCI 21  
TURKEY 2WSW N/A 41 17 37 NW8 29.98R  
UMBARGER 3NNE N/A 29 12 49 N6 30.01R WCI 22  

 
 
TXZ033>036-039>041-045>048-140900  
TEXAS TECH WEST TEXAS MESONET/SOUTH PLAINS  
 
CITY SKY/WX TMP DP RH WIND PRES REMARKS
 
AIKEN 3WSW N/A 29 12 49 N8 29.99S WCI 21  
ANDREWS 2NE N/A 34 19 54 N7 29.93S WCI 28  
ANTON 6SSW N/A 29 14 52 N9 29.97F WCI 21  
BROWNFIELD 2S N/A 35 14 41 NW8 29.97R WCI 29  
DENVR CTY 7WNW N/A 30 13 48 N9 29.96S WCI 22  
GAIL 2ESE N/A 39 17 42 N5 29.94R  
LAMESA 2SE N/A 41 20 42 NE5 29.94S  
LUBBOCK 3WNW N/A 30 13 48 N1 29.97F  
MORTON 1ENE N/A 28 10 47 N7 29.98S WCI 21  
ODONNELL 1N N/A 36 18 47 N8 29.95R WCI 30  
PLAINS 3N N/A 31 11 44 N10 29.97S WCI 22  
RALLS 1SE N/A 36 14 41 N8 29.97F WCI 29  
REESE CENTER N/A 30 13 49 N8 29.97S WCI 22  
SEAGRAVES 1SW N/A 34 15 46 N7 29.96S WCI 28  
SEMINOLE 2NNE N/A 36 16 44 N9 29.95S WCI 29  
SLATON 2NE N/A 36 16 42 N7 29.96S WCI 31  
SNYDER 3E N/A 48 18 30 NE10 29.94S  
SUNDOWN 8SW N/A 28 11 48 N8 29.97S WCI 20  
TAHOKA 3NNE N/A 31 15 50 N7 29.96R WCI 24  
WOLFFORTH 6SSW N/A 31 11 45 NW7 29.97S WCI 24  

 
 
TXZ031-032-036>038-042>044-140900-  
TEXAS TECH WEST TEXAS MESONET/ROLLING PLAINS  
 
CITY SKY/WX TMP DP RH WIND PRES REMARKS
 
ASPERMONT 3NE N/A 35 14 42 NW3 29.95R  
FLUVANNA 3WNW N/A 43 18 36 E7 29.94R  
GUTHRIE 10WSW N/A 43 19 38 N6 29.94F  
HASKELL 1NW N/A 37 17 44 N1 29.93S  
JAYTON 1SSE N/A 41 17 37 N5 29.94S  
KNOX CITY 3NW N/A 36 16 44 NW3 29.94F  
LK A HENRY 1NW N/A 38 14 36 N5 29.95R WCI 35  
ODELL 4ENE N/A 32 20 63 CALM 29.97R  
PADUCAH 10SW N/A 42 20 42 NW7 29.96S  
POST 1NE N/A 39 17 40 NW8 29.95S WCI 34  
RRING SPRGS 3N N/A 42 19 40 N6 29.97S  
SEYMOUR 3NW N/A 38 22 53 NW3 29.94S  
SPUR 1W N/A 38 18 45 N8 29.94F WCI 32  
WEINERT 2NNE N/A 39 18 43 N6 29.93F WCI 35  
WHITE RVR 6NE N/A 40 18 40 N13 29.95S WCI 32  

 
 
TXZ052-054-060>062-072-078-127-140-154-169-140900-  
TEXAS TECH WEST TEXAS MESONET/PERMIAN BASIN/  
CONCHO VALLEY/BIG COUNTRY/EDWARDS PLATEAU  
 
CITY SKY/WX TMP DP RH WIND PRES REMARKS
 
COYANOSA 2N N/A 42 32 68 W6 29.93F  
JUNCTION 1SSW N/A 41 35 81 CALM 29.95S  
MERTZON 3NNE N/A 44 34 68 SW3 29.93F  
SAN ANGELO 7NW N/A 36 26 67 NW3 29.93F  
STRLNG CT 4WSW N/A 30 25 80 W3 29.95S  
ST LAWRNCE 5SW N/A 32 26 78 N5 29.92S WCI 28  
SWEETWATR 11SW N/A 40 19 42 NE8 29.95S  
WALL 1E N/A 41 32 69 W7 29.93F  

 
 
TXZ055-058-074-075-080-082-140900-  
TEXAS TECH WEST TEXAS MESONET/FAR WEST/SOUTHWEST MOUNTAINS/TRANS PECOS  
 
CITY SKY/WX TMP DP RH WIND PRES REMARKS
 
PRSMN GAP BBNP N/A 48 35 62 SW6 29.97S  
GUADLPE MTN NP N/A 43 19 38 NE6 30.00S  

 
 
 
CLICK HERE TO GO TO PREVIOUS BULLETINS.

The Nexlab TX Page Main Text Page